User: anonymous   Login
Location: Unspecified
(0.0000°N, 0.0000°E)
Time: 23:57:05
(UTC+00:00)
Language:

STARLINK-2555 - Orbit

View from above orbital plane
View from above orbital plane
View from above satellite
View from above satellite

Ground track
Ground track

The orbit is defined by the following mean orbital elements,

1 48291U          26145.54518609 +.00000000 +00000-0 +32800-4 0 00000
2 48291  53.1606  80.3540 0001400  93.6298 266.4863 15.31704099    03
Epoch (UTC): 25 May 2026 13:05:04
Eccentricity: 0.0001400
inclination: 53.1606°
perigee height: 470 km
apogee height: 472 km
right ascension of ascending node: 80.3540°
argument of perigee: 93.6298°
revolutions per day: 15.31704099
mean anomaly at epoch: 266.4863°

The dashed part of the orbit path shows where the satellite is in the earth's shadow,  

DLR